Location: El Dieciséis
(32.4721°N, 116.6080°W)
Time: 06:51:33
(UTC+00:00)

ARIANE 6 FM1 Upper Stage - Pass Details

Date: 19 August 2024
Orbit: 566 x 594 km, 62.0° (Epoch: 19 September)

Event Time Altitude Azimuth Distance (km) Brightness Sun altitude
Exits shadow 12:44:31 - 218° (SW) 2,399 5.4 -6.7°
Reaches altitude 10° 12:45:49 10° 220° (SW) 1,881 4.8 -6.4°
Maximum altitude 12:50:02 65° 303° (WNW) 642 2.8 -5.6°
Drops below altitude 10° 12:54:20 10° 25° (NNE) 1,911 6.1 -4.7°
Sets 12:56:37 0° 29° (NNE) 2,819 7.0 -4.2°
